Year,Month,Day,Hour,Minute,Value (Times are PST for windgust in km/hr)
2014,12,10,00,00,19.30
2014,12,10,00,01,11.30
2014,12,10,00,02,11.30
2014,12,10,00,03,14.50
2014,12,10,00,04,12.90
2014,12,10,00,05,17.70
2014,12,10,00,06,14.50
2014,12,10,00,07,14.50
2014,12,10,00,08,14.50
2014,12,10,00,09,17.70
2014,12,10,00,10,20.90
2014,12,10,00,11,14.50
2014,12,10,00,12,14.50
2014,12,10,00,13,20.90
2014,12,10,00,14,20.90
2014,12,10,00,15,14.50
2014,12,10,00,16,20.90
2014,12,10,00,17,16.10
2014,12,10,00,18,20.90
2014,12,10,00,19,12.90
2014,12,10,00,20,19.30
2014,12,10,00,21,17.70
2014,12,10,00,22,16.10
2014,12,10,00,23,14.50
2014,12,10,00,24,11.30
2014,12,10,00,25,16.10
2014,12,10,00,26,22.50
2014,12,10,00,27,16.10
2014,12,10,00,28,16.10
2014,12,10,00,29,14.50
2014,12,10,00,30,20.90
2014,12,10,00,31,14.50
2014,12,10,00,32,12.90
2014,12,10,00,33,17.70
2014,12,10,00,34,17.70
2014,12,10,00,35,12.90
2014,12,10,00,36,17.70
2014,12,10,00,37,19.30
2014,12,10,00,38,16.10
2014,12,10,00,39,25.70
2014,12,10,00,40,20.90
2014,12,10,00,41,20.90
2014,12,10,00,42,14.50
2014,12,10,00,43,19.30
2014,12,10,00,44,16.10
2014,12,10,00,45,14.50
2014,12,10,00,46,16.10
2014,12,10,00,47,11.30
2014,12,10,00,48,8.10
2014,12,10,00,49,19.30
2014,12,10,00,50,11.30
2014,12,10,00,51,16.10
2014,12,10,00,52,17.70
2014,12,10,00,53,12.90
2014,12,10,00,54,11.30
2014,12,10,00,55,16.10
2014,12,10,00,56,16.10
2014,12,10,00,57,16.10
2014,12,10,00,58,14.50
2014,12,10,00,59,16.10
2014,12,10,01,00,16.10
2014,12,10,01,01,17.70
2014,12,10,01,02,17.70
2014,12,10,01,03,11.30
2014,12,10,01,04,20.90
2014,12,10,01,05,19.30
2014,12,10,01,06,16.10
2014,12,10,01,07,14.50
2014,12,10,01,08,20.90
2014,12,10,01,09,17.70
2014,12,10,01,10,16.10
2014,12,10,01,11,27.40
2014,12,10,01,12,30.60
2014,12,10,01,13,20.90
2014,12,10,01,14,25.70
2014,12,10,01,15,14.50
2014,12,10,01,16,27.40
2014,12,10,01,17,17.70
2014,12,10,01,18,12.90
2014,12,10,01,19,16.10
2014,12,10,01,20,16.10
2014,12,10,01,21,19.30
2014,12,10,01,22,24.20
2014,12,10,01,23,20.90
2014,12,10,01,24,12.90
2014,12,10,01,25,14.50
2014,12,10,01,26,24.20
2014,12,10,01,27,17.70
2014,12,10,01,28,14.50
2014,12,10,01,29,14.50
2014,12,10,01,30,22.50
2014,12,10,01,31,22.50
2014,12,10,01,32,16.10
2014,12,10,01,33,17.70
2014,12,10,01,34,27.40
2014,12,10,01,35,11.30
2014,12,10,01,36,19.30
2014,12,10,01,37,12.90
2014,12,10,01,38,12.90
2014,12,10,01,39,12.90
2014,12,10,01,40,14.50
2014,12,10,01,41,14.50
2014,12,10,01,42,12.90
2014,12,10,01,43,12.90
2014,12,10,01,44,12.90
2014,12,10,01,45,14.50
2014,12,10,01,46,16.10
2014,12,10,01,47,16.10
2014,12,10,01,48,16.10
2014,12,10,01,49,12.90
2014,12,10,01,50,14.50
2014,12,10,01,51,16.10
2014,12,10,01,52,11.30
2014,12,10,01,53,16.10
2014,12,10,01,54,16.10
2014,12,10,01,55,11.30
2014,12,10,01,56,16.10
2014,12,10,01,57,14.50
2014,12,10,01,58,12.90
2014,12,10,01,59,16.10
2014,12,10,02,00,16.10
2014,12,10,02,01,11.30
2014,12,10,02,02,14.50
2014,12,10,02,03,12.90
2014,12,10,02,04,11.30
2014,12,10,02,05,12.90
2014,12,10,02,06,12.90
2014,12,10,02,07,14.50
2014,12,10,02,08,9.60
2014,12,10,02,09,11.30
2014,12,10,02,10,12.90
2014,12,10,02,11,14.50
2014,12,10,02,12,6.40
2014,12,10,02,13,11.30
2014,12,10,02,14,14.50
2014,12,10,02,15,17.70
2014,12,10,02,16,19.30
2014,12,10,02,17,20.90
2014,12,10,02,18,20.90
2014,12,10,02,19,19.30
2014,12,10,02,20,20.90
2014,12,10,02,21,14.50
2014,12,10,02,22,16.10
2014,12,10,02,23,17.70
2014,12,10,02,24,12.90
2014,12,10,02,25,16.10
2014,12,10,02,26,22.50
2014,12,10,02,27,24.20
2014,12,10,02,28,19.30
2014,12,10,02,29,19.30
2014,12,10,02,30,27.40
2014,12,10,02,31,25.70
2014,12,10,02,32,22.50
2014,12,10,02,33,25.70
2014,12,10,02,34,29.00
2014,12,10,02,35,19.30
2014,12,10,02,36,30.60
2014,12,10,02,37,22.50
2014,12,10,02,38,32.20
2014,12,10,02,39,24.20
2014,12,10,02,40,25.70
2014,12,10,02,41,20.90
2014,12,10,02,42,17.70
2014,12,10,02,43,30.60
2014,12,10,02,44,35.40
2014,12,10,02,45,25.70
2014,12,10,02,46,24.20
2014,12,10,02,47,24.20
2014,12,10,02,48,24.20
2014,12,10,02,49,24.20
2014,12,10,02,50,20.90
2014,12,10,02,51,22.50
2014,12,10,02,52,24.20
2014,12,10,02,53,19.30
2014,12,10,02,54,17.70
2014,12,10,02,55,22.50
2014,12,10,02,56,16.10
2014,12,10,02,57,14.50
2014,12,10,02,58,19.30
2014,12,10,02,59,24.20
2014,12,10,03,00,27.40
2014,12,10,03,01,20.90
2014,12,10,03,02,12.90
2014,12,10,03,03,16.10
2014,12,10,03,04,19.30
2014,12,10,03,05,24.20
2014,12,10,03,06,17.70
2014,12,10,03,07,20.90
2014,12,10,03,08,19.30
2014,12,10,03,09,17.70
2014,12,10,03,10,16.10
2014,12,10,03,11,17.70
2014,12,10,03,12,20.90
2014,12,10,03,13,17.70
2014,12,10,03,14,19.30
2014,12,10,03,15,24.20
2014,12,10,03,16,17.70
2014,12,10,03,17,20.90
2014,12,10,03,18,19.30
2014,12,10,03,19,19.30
2014,12,10,03,20,19.30
2014,12,10,03,21,16.10
2014,12,10,03,22,24.20
2014,12,10,03,23,29.00
2014,12,10,03,24,17.70
2014,12,10,03,25,27.40
2014,12,10,03,26,32.20
2014,12,10,03,27,25.70
2014,12,10,03,28,20.90
2014,12,10,03,29,38.60
2014,12,10,03,30,30.60
2014,12,10,03,31,43.50
2014,12,10,03,32,40.20
2014,12,10,03,33,41.80
2014,12,10,03,34,22.50
2014,12,10,03,35,43.50
2014,12,10,03,36,45.10
2014,12,10,03,37,33.80
2014,12,10,03,38,45.10
2014,12,10,03,39,38.60
2014,12,10,03,40,35.40
2014,12,10,03,41,38.60
2014,12,10,03,42,38.60
2014,12,10,03,43,35.40
2014,12,10,03,44,25.70
2014,12,10,03,45,20.90
2014,12,10,03,46,30.60
2014,12,10,03,47,27.40
2014,12,10,03,48,25.70
2014,12,10,03,49,25.70
2014,12,10,03,50,25.70
2014,12,10,03,51,38.60
2014,12,10,03,52,35.40
2014,12,10,03,53,27.40
2014,12,10,03,54,41.80
2014,12,10,03,55,35.40
2014,12,10,03,56,27.40
2014,12,10,03,57,32.20
2014,12,10,03,58,41.80
2014,12,10,03,59,29.00
2014,12,10,04,00,33.80
2014,12,10,04,01,35.40
2014,12,10,04,02,29.00
2014,12,10,04,03,29.00
2014,12,10,04,04,45.10
2014,12,10,04,05,33.80
2014,12,10,04,06,25.70
2014,12,10,04,07,33.80
2014,12,10,04,08,32.20
2014,12,10,04,09,46.70
2014,12,10,04,10,40.20
2014,12,10,04,11,37.00
2014,12,10,04,12,40.20
2014,12,10,04,13,32.20
2014,12,10,04,14,40.20
2014,12,10,04,15,30.60
2014,12,10,04,16,29.00
2014,12,10,04,17,30.60
2014,12,10,04,18,38.60
2014,12,10,04,19,40.20
2014,12,10,04,20,56.30
2014,12,10,04,21,40.20
2014,12,10,04,22,40.20
2014,12,10,04,23,41.80
2014,12,10,04,24,25.70
2014,12,10,04,25,40.20
2014,12,10,04,26,37.00
2014,12,10,04,27,53.10
2014,12,10,04,28,30.60
2014,12,10,04,29,37.00
2014,12,10,04,30,29.00
2014,12,10,04,31,43.50
2014,12,10,04,32,32.20
2014,12,10,04,33,43.50
2014,12,10,04,34,48.30
2014,12,10,04,35,33.80
2014,12,10,04,36,41.80
2014,12,10,04,37,37.00
2014,12,10,04,38,67.60
2014,12,10,04,39,41.80
2014,12,10,04,40,35.40
2014,12,10,04,41,43.50
2014,12,10,04,42,48.30
2014,12,10,04,43,45.10
2014,12,10,04,44,45.10
2014,12,10,04,45,41.80
2014,12,10,04,46,43.50
2014,12,10,04,47,40.20
2014,12,10,04,48,46.70
2014,12,10,04,49,48.30
2014,12,10,04,50,32.20
2014,12,10,04,51,38.60
2014,12,10,04,52,43.50
2014,12,10,04,53,43.50
2014,12,10,04,54,41.80
2014,12,10,04,55,54.70
2014,12,10,04,56,40.20
2014,12,10,04,57,33.80
2014,12,10,04,58,49.90
2014,12,10,04,59,33.80
2014,12,10,05,00,25.70
2014,12,10,05,01,41.80
2014,12,10,05,02,43.50
2014,12,10,05,03,49.90
2014,12,10,05,04,54.70
2014,12,10,05,05,53.10
2014,12,10,05,06,48.30
2014,12,10,05,07,41.80
2014,12,10,05,08,59.50
2014,12,10,05,09,49.90
2014,12,10,05,10,35.40
2014,12,10,05,11,49.90
2014,12,10,05,12,48.30
2014,12,10,05,13,56.30
2014,12,10,05,14,62.70
2014,12,10,05,15,51.50
2014,12,10,05,16,45.10
2014,12,10,05,17,48.30
2014,12,10,05,18,56.30
2014,12,10,05,19,43.50
2014,12,10,05,20,45.10
2014,12,10,05,21,43.50
2014,12,10,05,22,41.80
2014,12,10,05,23,43.50
2014,12,10,05,24,40.20
2014,12,10,05,25,48.30
2014,12,10,05,26,48.30
2014,12,10,05,27,35.40
2014,12,10,05,28,41.80
2014,12,10,05,29,49.90
2014,12,10,05,30,38.60
2014,12,10,05,31,51.50
2014,12,10,05,32,59.50
2014,12,10,05,33,51.50
2014,12,10,05,34,49.90
2014,12,10,05,35,62.70
2014,12,10,05,36,56.30
2014,12,10,05,37,53.10
2014,12,10,05,38,40.20
2014,12,10,05,39,49.90
2014,12,10,05,40,41.80
2014,12,10,05,41,45.10
2014,12,10,05,42,59.50
2014,12,10,05,43,33.80
2014,12,10,05,44,59.50
2014,12,10,05,45,56.30
2014,12,10,05,46,41.80
2014,12,10,05,47,35.40
2014,12,10,05,48,41.80
2014,12,10,05,49,48.30
2014,12,10,05,50,38.60
2014,12,10,05,51,43.50
2014,12,10,05,52,46.70
2014,12,10,05,53,56.30
2014,12,10,05,54,43.50
2014,12,10,05,55,53.10
2014,12,10,05,56,51.50
2014,12,10,05,57,43.50
2014,12,10,05,58,29.00
2014,12,10,05,59,37.00
2014,12,10,06,00,51.50
2014,12,10,06,01,40.20
2014,12,10,06,02,43.50
2014,12,10,06,03,35.40
2014,12,10,06,04,37.00
2014,12,10,06,05,41.80
2014,12,10,06,06,40.20
2014,12,10,06,07,24.20
2014,12,10,06,08,33.80
2014,12,10,06,09,32.20
2014,12,10,06,10,45.10
2014,12,10,06,11,41.80
2014,12,10,06,12,40.20
2014,12,10,06,13,43.50
2014,12,10,06,14,37.00
2014,12,10,06,15,37.00
2014,12,10,06,16,40.20
2014,12,10,06,17,45.10
2014,12,10,06,18,37.00
2014,12,10,06,19,43.50
2014,12,10,06,20,35.40
2014,12,10,06,21,35.40
2014,12,10,06,22,41.80
2014,12,10,06,23,41.80
2014,12,10,06,24,40.20
2014,12,10,06,25,41.80
2014,12,10,06,26,46.70
2014,12,10,06,27,37.00
2014,12,10,06,28,43.50
2014,12,10,06,29,38.60
2014,12,10,06,30,66.00
2014,12,10,06,31,56.30
2014,12,10,06,32,59.50
2014,12,10,06,33,54.70
2014,12,10,06,34,43.50
2014,12,10,06,35,49.90
2014,12,10,06,36,45.10
2014,12,10,06,37,57.90
2014,12,10,06,38,53.10
2014,12,10,06,39,38.60
2014,12,10,06,40,30.60
2014,12,10,06,41,45.10
2014,12,10,06,42,45.10
2014,12,10,06,43,45.10
2014,12,10,06,44,37.00
2014,12,10,06,45,54.70
2014,12,10,06,46,40.20
2014,12,10,06,47,54.70
2014,12,10,06,48,57.90
2014,12,10,06,49,40.20
2014,12,10,06,50,40.20
2014,12,10,06,51,43.50
2014,12,10,06,52,41.80
2014,12,10,06,53,46.70
2014,12,10,06,54,35.40
2014,12,10,06,55,37.00
2014,12,10,06,56,72.40
2014,12,10,06,57,72.40
2014,12,10,06,58,43.50
2014,12,10,06,59,51.50
2014,12,10,07,00,38.60
2014,12,10,07,01,53.10
2014,12,10,07,02,45.10
2014,12,10,07,03,37.00
2014,12,10,07,04,32.20
2014,12,10,07,05,35.40
2014,12,10,07,06,33.80
2014,12,10,07,07,32.20
2014,12,10,07,08,37.00
2014,12,10,07,09,32.20
2014,12,10,07,10,16.10
2014,12,10,07,11,48.30
2014,12,10,07,12,38.60
2014,12,10,07,13,29.00
2014,12,10,07,14,41.80
2014,12,10,07,15,29.00
2014,12,10,07,16,37.00
2014,12,10,07,17,43.50
2014,12,10,07,18,38.60
2014,12,10,07,19,30.60
2014,12,10,07,20,22.50
2014,12,10,07,21,37.00
2014,12,10,07,22,37.00
2014,12,10,07,23,43.50
2014,12,10,07,24,40.20
2014,12,10,07,25,51.50
2014,12,10,07,26,48.30
2014,12,10,07,27,46.70
2014,12,10,07,28,32.20
2014,12,10,07,29,53.10
2014,12,10,07,30,35.40
2014,12,10,07,31,37.00
2014,12,10,07,32,53.10
2014,12,10,07,33,45.10
2014,12,10,07,34,35.40
2014,12,10,07,35,40.20
2014,12,10,07,36,46.70
2014,12,10,07,37,32.20
2014,12,10,07,38,37.00
2014,12,10,07,39,40.20
2014,12,10,07,40,33.80
2014,12,10,07,41,35.40
2014,12,10,07,42,46.70
2014,12,10,07,43,37.00
2014,12,10,07,44,22.50
2014,12,10,07,45,46.70
2014,12,10,07,46,35.40
2014,12,10,07,47,35.40
2014,12,10,07,48,37.00
2014,12,10,07,49,37.00
2014,12,10,07,50,38.60
2014,12,10,07,51,37.00
2014,12,10,07,52,45.10
2014,12,10,07,53,51.50
2014,12,10,07,54,46.70
2014,12,10,07,55,38.60
2014,12,10,07,56,33.80
2014,12,10,07,57,37.00
2014,12,10,07,58,33.80
2014,12,10,07,59,37.00
2014,12,10,08,00,27.40
2014,12,10,08,01,24.20
2014,12,10,08,02,54.70
2014,12,10,08,03,35.40
2014,12,10,08,04,38.60
2014,12,10,08,05,49.90
2014,12,10,08,06,37.00
2014,12,10,08,07,35.40
2014,12,10,08,08,45.10
2014,12,10,08,09,30.60
2014,12,10,08,10,22.50
2014,12,10,08,11,32.20
2014,12,10,08,12,49.90
2014,12,10,08,13,38.60
2014,12,10,08,14,40.20
2014,12,10,08,15,33.80
2014,12,10,08,16,38.60
2014,12,10,08,17,51.50
2014,12,10,08,18,43.50
2014,12,10,08,19,33.80
2014,12,10,08,20,49.90
2014,12,10,08,21,54.70
2014,12,10,08,22,38.60
2014,12,10,08,23,24.20
2014,12,10,08,24,27.40
2014,12,10,08,25,30.60
2014,12,10,08,26,29.00
2014,12,10,08,27,35.40
2014,12,10,08,28,35.40
2014,12,10,08,29,46.70
2014,12,10,08,30,30.60
2014,12,10,08,31,19.30
2014,12,10,08,32,29.00
2014,12,10,08,33,30.60
2014,12,10,08,34,37.00
2014,12,10,08,35,19.30
2014,12,10,08,36,19.30
2014,12,10,08,37,14.50
2014,12,10,08,38,27.40
2014,12,10,08,39,27.40
2014,12,10,08,40,29.00
2014,12,10,08,41,20.90
2014,12,10,08,42,27.40
2014,12,10,08,43,25.70
2014,12,10,08,44,24.20
2014,12,10,08,45,29.00
2014,12,10,08,46,24.20
2014,12,10,08,47,35.40
2014,12,10,08,48,25.70
2014,12,10,08,49,20.90
2014,12,10,08,50,14.50
2014,12,10,08,51,27.40
2014,12,10,08,52,16.10
2014,12,10,08,53,16.10
2014,12,10,08,54,24.20
2014,12,10,08,55,25.70
2014,12,10,08,56,22.50
2014,12,10,08,57,25.70
2014,12,10,08,58,24.20
2014,12,10,08,59,25.70
2014,12,10,09,00,8.10
2014,12,10,09,01,19.30
2014,12,10,09,02,8.10
2014,12,10,09,03,20.90
2014,12,10,09,04,29.00
2014,12,10,09,05,30.60
2014,12,10,09,06,29.00
2014,12,10,09,07,24.20
2014,12,10,09,08,27.40
2014,12,10,09,09,17.70
2014,12,10,09,10,27.40
2014,12,10,09,11,30.60
2014,12,10,09,12,16.10
2014,12,10,09,13,19.30
2014,12,10,09,14,19.30
2014,12,10,09,15,22.50
2014,12,10,09,16,25.70
2014,12,10,09,17,25.70
2014,12,10,09,18,25.70
2014,12,10,09,19,29.00
2014,12,10,09,20,19.30
2014,12,10,09,21,33.80
2014,12,10,09,22,17.70
2014,12,10,09,23,24.20
2014,12,10,09,24,22.50
2014,12,10,09,25,24.20
2014,12,10,09,26,24.20
2014,12,10,09,27,25.70
2014,12,10,09,28,22.50
2014,12,10,09,29,17.70
2014,12,10,09,30,16.10
2014,12,10,09,31,16.10
2014,12,10,09,32,19.30
2014,12,10,09,33,27.40
2014,12,10,09,34,29.00
2014,12,10,09,35,12.90
2014,12,10,09,36,19.30
2014,12,10,09,37,16.10
2014,12,10,09,38,17.70
2014,12,10,09,39,24.20
2014,12,10,09,40,19.30
2014,12,10,09,41,19.30
2014,12,10,09,42,17.70
2014,12,10,09,43,17.70
2014,12,10,09,44,12.90
2014,12,10,09,45,17.70
2014,12,10,09,46,14.50
2014,12,10,09,47,17.70
2014,12,10,09,48,19.30
2014,12,10,09,49,22.50
2014,12,10,09,50,19.30
2014,12,10,09,51,22.50
2014,12,10,09,52,14.50
2014,12,10,09,53,24.20
2014,12,10,09,54,16.10
2014,12,10,09,55,20.90
2014,12,10,09,56,27.40
2014,12,10,09,57,20.90
2014,12,10,09,58,20.90
2014,12,10,09,59,12.90
2014,12,10,10,00,16.10
2014,12,10,10,01,24.20
2014,12,10,10,02,16.10
2014,12,10,10,03,29.00
2014,12,10,10,04,16.10
2014,12,10,10,05,22.50
2014,12,10,10,06,25.70
2014,12,10,10,07,27.40
2014,12,10,10,08,22.50
2014,12,10,10,09,24.20
2014,12,10,10,10,17.70
2014,12,10,10,11,17.70
2014,12,10,10,12,19.30
2014,12,10,10,13,19.30
2014,12,10,10,14,22.50
2014,12,10,10,15,17.70
2014,12,10,10,16,19.30
2014,12,10,10,17,25.70
2014,12,10,10,18,20.90
2014,12,10,10,19,16.10
2014,12,10,10,20,17.70
2014,12,10,10,21,17.70
2014,12,10,10,22,19.30
2014,12,10,10,23,17.70
2014,12,10,10,24,20.90
2014,12,10,10,25,22.50
2014,12,10,10,26,19.30
2014,12,10,10,27,22.50
2014,12,10,10,28,19.30
2014,12,10,10,29,17.70
2014,12,10,10,30,14.50
2014,12,10,10,31,19.30
2014,12,10,10,32,12.90
2014,12,10,10,33,16.10
2014,12,10,10,34,20.90
2014,12,10,10,35,14.50
2014,12,10,10,36,14.50
2014,12,10,10,37,12.90
2014,12,10,10,38,12.90
2014,12,10,10,39,8.10
2014,12,10,10,40,16.10
2014,12,10,10,41,19.30
2014,12,10,10,42,17.70
2014,12,10,10,43,12.90
2014,12,10,10,44,11.30
2014,12,10,10,45,12.90
2014,12,10,10,46,11.30
2014,12,10,10,47,14.50
2014,12,10,10,48,16.10
2014,12,10,10,49,12.90
2014,12,10,10,50,19.30
2014,12,10,10,51,12.90
2014,12,10,10,52,16.10
2014,12,10,10,53,16.10
2014,12,10,10,54,14.50
2014,12,10,10,55,16.10
2014,12,10,10,56,11.30
2014,12,10,10,57,16.10
2014,12,10,10,58,11.30
2014,12,10,10,59,12.90
2014,12,10,11,00,16.10
2014,12,10,11,01,14.50
2014,12,10,11,02,14.50
2014,12,10,11,03,17.70
2014,12,10,11,04,17.70
2014,12,10,11,05,19.30
2014,12,10,11,06,16.10
2014,12,10,11,07,16.10
2014,12,10,11,08,11.30
2014,12,10,11,09,17.70
2014,12,10,11,10,11.30
2014,12,10,11,11,12.90
2014,12,10,11,12,14.50
2014,12,10,11,13,11.30
2014,12,10,11,14,19.30
2014,12,10,11,15,17.70
2014,12,10,11,16,14.50
2014,12,10,11,17,16.10
2014,12,10,11,18,14.50
2014,12,10,11,19,12.90
2014,12,10,11,20,16.10
2014,12,10,11,21,19.30
2014,12,10,11,22,17.70
2014,12,10,11,23,17.70
2014,12,10,11,24,17.70
2014,12,10,11,25,11.30
2014,12,10,11,26,14.50
2014,12,10,11,27,12.90
2014,12,10,11,28,11.30
2014,12,10,11,29,9.60
2014,12,10,11,30,14.50
2014,12,10,11,31,22.50
2014,12,10,11,32,16.10
2014,12,10,11,33,14.50
2014,12,10,11,34,9.60
2014,12,10,11,35,12.90
2014,12,10,11,36,6.40
2014,12,10,11,37,16.10
2014,12,10,11,38,6.40
2014,12,10,11,39,1.60
2014,12,10,11,40,4.80
2014,12,10,11,41,4.80
2014,12,10,11,42,3.20
2014,12,10,11,43,3.20
2014,12,10,11,44,4.80
2014,12,10,11,45,4.80
2014,12,10,11,46,3.20
2014,12,10,11,47,3.20
2014,12,10,11,48,4.80
2014,12,10,11,49,4.80
2014,12,10,11,50,4.80
2014,12,10,11,51,4.80
2014,12,10,11,52,4.80
2014,12,10,11,53,6.40
2014,12,10,11,54,4.80
2014,12,10,11,55,6.40
2014,12,10,11,56,6.40
2014,12,10,11,57,8.10
2014,12,10,11,58,6.40
2014,12,10,11,59,14.50
2014,12,10,12,00,11.30
2014,12,10,12,01,9.60
2014,12,10,12,02,6.40
2014,12,10,12,03,6.40
2014,12,10,12,04,9.60
2014,12,10,12,05,9.60
2014,12,10,12,06,8.10
2014,12,10,12,07,4.80
2014,12,10,12,08,6.40
2014,12,10,12,09,8.10
2014,12,10,12,10,8.10
2014,12,10,12,11,9.60
2014,12,10,12,12,14.50
2014,12,10,12,13,16.10
2014,12,10,12,14,16.10
2014,12,10,12,15,14.50
2014,12,10,12,16,11.30
2014,12,10,12,17,11.30
2014,12,10,12,18,8.10
2014,12,10,12,19,19.30
2014,12,10,12,20,25.70
2014,12,10,12,21,12.90
2014,12,10,12,22,20.90
2014,12,10,12,23,24.20
2014,12,10,12,24,20.90
2014,12,10,12,25,16.10
2014,12,10,12,26,22.50
2014,12,10,12,27,17.70
2014,12,10,12,28,22.50
2014,12,10,12,29,30.60
2014,12,10,12,30,24.20
2014,12,10,12,31,24.20
2014,12,10,12,32,30.60
2014,12,10,12,33,29.00
2014,12,10,12,34,16.10
2014,12,10,12,35,16.10
2014,12,10,12,36,16.10
2014,12,10,12,37,17.70
2014,12,10,12,38,12.90
2014,12,10,12,39,14.50
2014,12,10,12,40,16.10
2014,12,10,12,41,19.30
2014,12,10,12,42,11.30
2014,12,10,12,43,12.90
2014,12,10,12,44,11.30
2014,12,10,12,45,16.10
2014,12,10,12,46,14.50
2014,12,10,12,47,19.30
2014,12,10,12,48,20.90
2014,12,10,12,49,16.10
2014,12,10,12,50,16.10
2014,12,10,12,51,14.50
2014,12,10,12,52,12.90
2014,12,10,12,53,8.10
2014,12,10,12,54,9.60
2014,12,10,12,55,11.30
2014,12,10,12,56,14.50
2014,12,10,12,57,12.90
2014,12,10,12,58,8.10
2014,12,10,12,59,9.60
2014,12,10,13,00,9.60
2014,12,10,13,01,11.30
2014,12,10,13,02,8.10
2014,12,10,13,03,9.60
2014,12,10,13,04,6.40
2014,12,10,13,05,17.70
2014,12,10,13,06,17.70
2014,12,10,13,07,11.30
2014,12,10,13,08,11.30
2014,12,10,13,09,11.30
2014,12,10,13,10,9.60
2014,12,10,13,11,9.60
2014,12,10,13,12,11.30
2014,12,10,13,13,8.10
2014,12,10,13,14,8.10
2014,12,10,13,15,9.60
2014,12,10,13,16,8.10
2014,12,10,13,17,6.40
2014,12,10,13,18,8.10
2014,12,10,13,19,6.40
2014,12,10,13,20,12.90
2014,12,10,13,21,11.30
2014,12,10,13,22,9.60
2014,12,10,13,23,8.10
2014,12,10,13,24,9.60
2014,12,10,13,25,9.60
2014,12,10,13,26,8.10
2014,12,10,13,27,8.10
2014,12,10,13,28,8.10
2014,12,10,13,29,9.60
2014,12,10,13,30,9.60
2014,12,10,13,31,6.40
2014,12,10,13,32,9.60
2014,12,10,13,33,8.10
2014,12,10,13,34,6.40
2014,12,10,13,35,9.60
2014,12,10,13,36,9.60
2014,12,10,13,37,8.10
2014,12,10,13,38,12.90
2014,12,10,13,39,6.40
2014,12,10,13,40,8.10
2014,12,10,13,41,14.50
2014,12,10,13,42,11.30
2014,12,10,13,43,11.30
2014,12,10,13,44,12.90
2014,12,10,13,45,8.10
2014,12,10,13,46,12.90
2014,12,10,13,47,12.90
2014,12,10,13,48,11.30
2014,12,10,13,49,9.60
2014,12,10,13,50,11.30
2014,12,10,13,51,11.30
2014,12,10,13,52,12.90
2014,12,10,13,53,8.10
2014,12,10,13,54,9.60
2014,12,10,13,55,11.30
2014,12,10,13,56,12.90
2014,12,10,13,57,16.10
2014,12,10,13,58,14.50
2014,12,10,13,59,16.10
2014,12,10,14,00,14.50
2014,12,10,14,01,16.10
2014,12,10,14,02,14.50
2014,12,10,14,03,9.60
2014,12,10,14,04,16.10
2014,12,10,14,05,14.50
2014,12,10,14,06,11.30
2014,12,10,14,07,9.60
2014,12,10,14,08,11.30
2014,12,10,14,09,14.50
2014,12,10,14,10,16.10
2014,12,10,14,11,14.50
2014,12,10,14,12,14.50
2014,12,10,14,13,19.30
2014,12,10,14,14,17.70
2014,12,10,14,15,19.30
2014,12,10,14,16,17.70
2014,12,10,14,17,19.30
2014,12,10,14,18,22.50
2014,12,10,14,19,19.30
2014,12,10,14,20,19.30
2014,12,10,14,21,19.30
2014,12,10,14,22,19.30
2014,12,10,14,23,20.90
2014,12,10,14,24,20.90
2014,12,10,14,25,22.50
2014,12,10,14,26,16.10
2014,12,10,14,27,14.50
2014,12,10,14,28,16.10
2014,12,10,14,29,17.70
2014,12,10,14,30,16.10
2014,12,10,14,31,16.10
2014,12,10,14,32,17.70
2014,12,10,14,33,19.30
2014,12,10,14,34,19.30
2014,12,10,14,35,14.50
2014,12,10,14,36,17.70
2014,12,10,14,37,16.10
2014,12,10,14,38,16.10
2014,12,10,14,39,19.30
2014,12,10,14,40,14.50
2014,12,10,14,41,19.30
2014,12,10,14,42,12.90
2014,12,10,14,43,11.30
2014,12,10,14,44,11.30
2014,12,10,14,45,11.30
2014,12,10,14,46,12.90
2014,12,10,14,47,9.60
2014,12,10,14,48,12.90
2014,12,10,14,49,14.50
2014,12,10,14,50,17.70
2014,12,10,14,51,14.50
2014,12,10,14,52,8.10
2014,12,10,14,53,9.60
2014,12,10,14,54,4.80
2014,12,10,14,55,9.60
2014,12,10,14,56,6.40
2014,12,10,14,57,12.90
2014,12,10,14,58,9.60
2014,12,10,14,59,9.60
2014,12,10,15,00,14.50
2014,12,10,15,01,9.60
2014,12,10,15,02,8.10
2014,12,10,15,03,12.90
2014,12,10,15,04,12.90
2014,12,10,15,05,16.10
2014,12,10,15,06,11.30
2014,12,10,15,07,12.90
2014,12,10,15,08,12.90
2014,12,10,15,09,17.70
2014,12,10,15,10,16.10
2014,12,10,15,11,17.70
2014,12,10,15,12,16.10
2014,12,10,15,13,17.70
2014,12,10,15,14,12.90
2014,12,10,15,15,12.90
2014,12,10,15,16,9.60
2014,12,10,15,17,8.10
2014,12,10,15,18,6.40
2014,12,10,15,19,9.60
2014,12,10,15,20,9.60
2014,12,10,15,21,8.10
2014,12,10,15,22,8.10
2014,12,10,15,23,6.40
2014,12,10,15,24,8.10
2014,12,10,15,25,4.80
2014,12,10,15,26,4.80
2014,12,10,15,27,6.40
2014,12,10,15,28,4.80
2014,12,10,15,29,4.80
2014,12,10,15,30,6.40
2014,12,10,15,31,6.40
2014,12,10,15,32,6.40
2014,12,10,15,33,4.80
2014,12,10,15,34,6.40
2014,12,10,15,35,6.40
2014,12,10,15,36,6.40
2014,12,10,15,37,4.80
2014,12,10,15,38,3.20
2014,12,10,15,39,4.80
2014,12,10,15,40,4.80
2014,12,10,15,41,4.80
2014,12,10,15,42,4.80
2014,12,10,15,43,3.20
2014,12,10,15,44,3.20
2014,12,10,15,45,6.40
2014,12,10,15,46,8.10
2014,12,10,15,47,4.80
2014,12,10,15,48,4.80
2014,12,10,15,49,4.80
2014,12,10,15,50,6.40
2014,12,10,15,51,6.40
2014,12,10,15,52,4.80
2014,12,10,15,53,8.10
2014,12,10,15,54,8.10
2014,12,10,15,55,4.80
2014,12,10,15,56,8.10
2014,12,10,15,57,6.40
2014,12,10,15,58,6.40
2014,12,10,15,59,9.60
2014,12,10,16,00,6.40
2014,12,10,16,01,8.10
2014,12,10,16,02,6.40
2014,12,10,16,03,4.80
2014,12,10,16,04,8.10
2014,12,10,16,05,8.10
2014,12,10,16,06,8.10
2014,12,10,16,07,8.10
2014,12,10,16,08,6.40
2014,12,10,16,09,3.20
2014,12,10,16,10,4.80
2014,12,10,16,11,9.60
2014,12,10,16,12,8.10
2014,12,10,16,13,8.10
2014,12,10,16,14,6.40
2014,12,10,16,15,6.40
2014,12,10,16,16,4.80
2014,12,10,16,17,6.40
2014,12,10,16,18,9.60
2014,12,10,16,19,9.60
2014,12,10,16,20,8.10
2014,12,10,16,21,14.50
2014,12,10,16,22,14.50
2014,12,10,16,23,11.30
2014,12,10,16,24,11.30
2014,12,10,16,25,11.30
2014,12,10,16,26,11.30
2014,12,10,16,27,11.30
2014,12,10,16,28,17.70
2014,12,10,16,29,12.90
2014,12,10,16,30,9.60
2014,12,10,16,31,12.90
2014,12,10,16,32,14.50
2014,12,10,16,33,14.50
2014,12,10,16,34,11.30
2014,12,10,16,35,14.50
2014,12,10,16,36,12.90
2014,12,10,16,37,11.30
2014,12,10,16,38,12.90
2014,12,10,16,39,12.90
2014,12,10,16,40,17.70
2014,12,10,16,41,11.30
2014,12,10,16,42,11.30
2014,12,10,16,43,12.90
2014,12,10,16,44,9.60
2014,12,10,16,45,12.90
2014,12,10,16,46,12.90
2014,12,10,16,47,14.50
2014,12,10,16,48,14.50
2014,12,10,16,49,9.60
2014,12,10,16,50,9.60
2014,12,10,16,51,12.90
2014,12,10,16,52,11.30
2014,12,10,16,53,14.50
2014,12,10,16,54,11.30
2014,12,10,16,55,11.30
2014,12,10,16,56,8.10
2014,12,10,16,57,11.30
2014,12,10,16,58,11.30
2014,12,10,16,59,6.40
2014,12,10,17,00,8.10
2014,12,10,17,01,8.10
2014,12,10,17,02,12.90
2014,12,10,17,03,11.30
2014,12,10,17,04,11.30
2014,12,10,17,05,8.10
2014,12,10,17,06,16.10
2014,12,10,17,07,20.90
2014,12,10,17,08,17.70
2014,12,10,17,09,14.50
2014,12,10,17,10,12.90
2014,12,10,17,11,11.30
2014,12,10,17,12,11.30
2014,12,10,17,13,14.50
2014,12,10,17,14,12.90
2014,12,10,17,15,12.90
2014,12,10,17,16,9.60
2014,12,10,17,17,8.10
2014,12,10,17,18,12.90
2014,12,10,17,19,11.30
2014,12,10,17,20,8.10
2014,12,10,17,21,11.30
2014,12,10,17,22,12.90
2014,12,10,17,23,9.60
2014,12,10,17,24,12.90
2014,12,10,17,25,9.60
2014,12,10,17,26,11.30